RH
59 58 58 62 67 66 63 67 71 76 90 93 81 83 86 71 54 45 42 42 41 39 38 41 41 36 34 37 37 37 39 38 39 40 40 40 41 43 45 47 47 47 45 43 43 43 44 45 46 47 49 50 50 50 49 48 47 47 47 47 47 47 48 48 48 48 50 53 58 60 57 56 56 53
59 56 59 65 71 71 68 72 76 75 80 80 78 88 91 75 59 48 43 42 42 40 39 39 39 38 38 38 37 38 38 39 39 40 40 41 42 44 46 48 49 49 47 45 44 43 43 45 46 46 48 48 48 48 48 48 48 48 49 51 51 51 55 57 56 55 55 55 59 61 58 55 57 57
57 55 58 67 74 75 74 78 79 72 69 76 85 87 74 57 50 45 43 43 42 41 41 40 39 40 41 40 41 41 40 39 40 41 42 42 42 44 45 45 46 46 45 45 45 45 45 44 44 46 47 48 48 49 50 49 49 50 53 55 55 57 61 62 62 64 66 65 65 64 59 55 56 58
56 57 62 68 75 78 76 76 76 68 63 67 69 61 49 43 43 43 42 42 41 40 40 41 41 41 42 43 43 42 40 40 40 41 42 42 42 43 44 44 44 43 44 45 46 47 48 47 47 49 50 51 51 51 52 51 50 52 57 59 59 61 66 68 73 79 82 79 75 69 64 60 59 60
58 62 66 70 77 82 80 81 79 65 50 44 42 41 40 42 43 42 41 41 40 39 38 41 43 43 42 42 43 45 45 45 44 44 44 43 42 41 42 45 45 45 45 47 49 50 51 49 48 50 52 54 54 54 54 53 52 55 59 61 63 66 72 77 83 91 95 92 86 79 73 69 66 65
59 64 69 70 75 81 83 86 80 59 40 35 37 41 42 43 43 43 42 41 40 39 38 38 40 41 41 43 48 50 51 50 50 50 49 47 47 45 44 44 46 46 45 46 49 50 50 49 47 49 52 54 55 55 56 55 54 57 59 62 66 69 74 80 86 91 94 95 93 87 82 78 73 70
55 59 62 63 66 71 74 74 64 47 38 38 39 42 43 43 42 43 45 44 42 40 39 39 41 44 47 51 54 54 54 54 55 56 54 52 53 53 51 49 49 49 46 47 51 50 47 47 47 48 50 51 53 54 56 58 58 58 59 61 66 71 75 80 85 88 90 92 93 91 88 82 77 72
48 50 52 55 59 64 66 63 52 42 39 39 39 40 40 40 40 43 47 46 44 43 44 46 49 53 56 58 59 59 59 61 62 63 61 58 57 58 59 56 51 50 49 49 50 49 46 45 46 47 48 48 49 51 54 56 57 59 60 59 62 69 75 79 83 87 90 91 91 91 89 84 79 76
43 47 48 51 56 59 60 55 46 41 39 37 36 36 36 38 40 42 44 46 47 48 49 53 57 60 63 64 65 65 66 67 69 70 70 70 66 62 63 61 54 51 53 52 50 50 46 44 45 46 46 45 45 46 49 51 52 54 57 57 58 60 66 72 77 81 84 86 86 85 84 84 83 83
41 45 47 52 57 54 48 44 40 39 38 34 34 35 35 37 41 43 44 46 50 53 55 58 62 65 67 69 71 74 75 76 76 80 82 79 73 69 68 65 59 57 58 56 52 51 48 44 44 45 45 45 45 45 47 48 49 50 51 54 55 55 57 61 67 72 75 78 81 79 78 79 80 81
39 42 44 51 59 56 49 46 42 38 37 35 35 37 36 38 42 45 48 52 57 61 63 66 69 71 73 75 80 85 89 89 87 89 88 81 77 76 73 70 66 64 62 59 56 54 49 43 43 45 46 47 48 49 50 50 50 51 52 53 54 54 55 55 57 61 63 66 70 72 73 75 75 76
38 39 40 44 53 58 62 61 50 41 40 39 37 38 39 42 47 52 58 64 67 70 73 76 79 81 82 84 90 96 99 97 93 90 87 82 79 80 78 75 71 68 64 61 58 55 51 46 43 45 48 51 52 53 55 55 53 54 55 56 57 57 57 57 57 58 58 58 59 61 63 65 66 68
41 39 39 39 42 47 52 53 46 40 39 39 40 42 46 52 58 64 69 74 77 80 84 87 91 93 94 95 99 101 97 91 87 85 84 82 81 82 81 76 72 70 67 62 60 57 53 50 48 48 51 54 56 58 59 59 57 58 60 61 61 62 63 64 64 63 64 64 61 59 58 58 60 61
47 45 43 44 48 51 49 45 44 43 42 44 47 52 58 65 69 74 80 86 90 93 94 96 100 101 99 96 93 90 85 80 79 81 83 87 88 86 81 75 72 71 68 62 60 58 56 54 52 52 56 60 62 63 63 62 62 63 65 67 67 67 67 67 66 66 66 66 65 63 61 60 60 60
57 56 57 61 65 62 55 49 47 49 51 57 63 68 73 78 83 87 91 95 98 99 100 100 98 94 88 83 80 79 78 78 81 85 90 94 92 82 75 75 75 74 71 65 60 57 59 63 59 54 59 69 73 71 68 66 67 69 70 72 72 71 71 69 69 68 67 67 67 66 66 65 63 62
67 64 64 66 64 59 55 54 56 63 72 80 85 88 89 92 96 96 96 100 103 102 99 92 86 82 79 79 80 81 83 86 91 96 95 90 82 74 72 75 76 76 74 68 62 57 59 69 71 62 61 72 81 85 81 72 72 77 79 79 78 78 78 77 76 76 75 73 71 70 69 69 66 64
65 63 62 62 63 65 69 72 76 83 92 97 98 97 97 99 100 100 101 104 103 96 90 86 84 85 87 89 91 92 94 97 99 96 88 78 72 71 73 77 77 76 74 70 68 64 61 68 79 76 70 71 81 92 94 85 80 85 87 88 88 87 87 85 83 83 83 81 79 77 76 74 72 68
70 71 73 74 75 78 82 88 93 97 100 102 102 101 100 101 103 104 104 101 96 92 92 93 93 95 96 97 101 101 99 98 95 89 79 72 71 73 76 79 77 73 72 71 71 72 70 71 82 87 79 74 79 90 98 95 89 90 91 91 92 93 91 90 87 87 88 88 88 87 85 84 82 79
92 90 90 91 90 90 92 95 99 101 100 100 101 103 104 105 104 104 102 98 97 97 98 98 99 100 101 103 105 102 93 88 86 82 76 73 74 76 76 77 76 72 73 73 72 76 78 78 88 96 87 77 79 88 97 98 94 94 94 91 91 95 95 92 91 90 92 93 93 93 92 92 93 93
101 100 99 98 97 98 99 99 100 101 101 102 102 102 103 101 100 100 100 99 98 98 98 101 103 104 104 102 99 95 89 85 82 80 79 78 77 76 75 75 74 71 73 77 80 82 80 77 88 99 92 82 85 90 95 99 101 101 99 93 93 97 98 97 97 96 97 98 98 98 100 101 102 101
98 99 100 100 99 99 100 101 101 101 100 100 99 97 96 95 96 98 98 97 98 100 101 103 104 105 104 97 92 93 92 87 82 79 79 79 76 74 77 79 75 69 71 82 91 94 85 75 82 94 93 87 92 94 93 97 106 109 106 100 98 101 103 103 103 103 103 103 103 105 107 108 107 105
99 97 97 99 100 101 101 101 100 99 97 96 96 96 97 98 99 99 97 97 101 105 107 107 106 108 108 101 97 98 94 85 80 78 78 78 75 74 81 85 80 74 74 81 95 105 97 80 79 90 91 87 92 97 95 96 103 109 109 107 106 107 109 108 108 108 107 107 108 110 110 110 110 108
101 100 99 98 99 100 101 101 99 98 98 98 99 99 98 99 100 100 99 99 99 99 102 102 99 100 103 102 98 95 89 83 80 78 76 76 74 76 84 88 86 87 85 81 91 108 104 87 84 93 96 91 88 93 96 95 98 102 104 106 109 111 111 110 110 108 106 107 108 108 108 106 105 105
99 99 100 99 100 101 101 99 99 99 99 99 100 100 100 101 102 100 99 97 94 93 94 93 90 88 88 86 84 83 83 81 81 80 80 79 76 77 85 88 88 95 95 84 89 104 101 89 89 97 102 99 91 89 93 95 96 97 97 101 107 110 109 109 109 108 106 106 107 107 105 100 94 92
100 100 101 100 100 100 99 97 96 98 99 99 100 101 101 101 99 96 96 94 93 94 95 92 90 87 85 84 82 83 86 86 86 87 86 84 83 83 85 86 85 90 91 85 88 96 94 90 92 95 99 99 94 91 92 93 95 95 93 97 102 103 102 104 105 104 104 103 103 103 101 92 82 77
99 100 100 100 100 101 101 98 97 98 99 99 99 99 99 98 96 93 93 95 96 97 95 91 87 85 88 90 88 89 93 90 87 88 86 84 88 88 83 81 81 83 84 82 84 88 88 88 90 90 91 93 93 93 92 90 90 90 88 92 97 94 89 90 93 95 95 92 92 93 90 83 75 68
101 101 102 101 101 100 99 98 97 97 96 95 97 97 96 96 95 91 88 89 90 90 88 85 83 81 82 84 83 87 90 84 80 87 89 86 87 83 77 78 82 82 81 79 81 83 85 86 87 87 89 91 92 92 91 88 87 85 82 85 90 87 80 76 79 82 80 76 75 75 73 71 68 63
100 100 99 97 96 94 95 95 94 93 92 93 94 94 94 94 92 87 84 84 85 85 84 82 81 78 76 75 73 74 75 74 76 83 86 84 82 79 77 80 81 79 77 77 78 79 81 83 85 86 88 89 89 88 87 84 82 80 76 74 76 75 68 63 65 68 66 62 59 57 56 57 56 54
97 98 97 96 95 93 91 89 87 86 87 87 87 88 91 94 91 86 84 85 85 83 82 80 77 74 71 69 66 64 66 71 72 72 73 74 75 74 75 76 75 74 73 73 72 73 75 77 79 82 84 83 81 80 78 76 74 72 68 64 61 58 54 52 53 54 54 52 49 47 46 46 45 44
101 100 97 92 88 85 82 80 80 80 79 77 79 84 91 96 94 89 85 83 80 76 74 72 69 66 65 65 63 62 64 65 64 62 64 67 67 67 68 67 67 67 66 64 63 64 65 67 69 72 73 71 68 66 65 64 62 59 54 50 47 45 43 43 43 45 45 44 42 40 39 39 39 37
95 91 86 83 82 81 81 80 77 74 71 72 77 84 90 93 92 87 81 78 74 69 66 63 61 61 63 62 61 60 60 59 57 56 56 56 56 55 55 54 55 55 53 51 51 51 53 54 55 56 56 55 53 52 51 50 49 45 40 37 36 37 38 38 38 39 39 37 36 35 34 34 35 34
88 87 88 88 89 89 88 85 81 77 75 76 78 80 81 81 80 77 73 71 67 62 59 57 58 60 61 60 58 56 54 51 48 44 43 43 42 41 40 40 40 41 41 40 40 39 40 41 42 43 43 43 43 42 41 39 37 35 32 31 32 34 36 35 34 34 34 33 32 31 30 30 31 29
91 92 93 94 94 95 94 92 88 85 82 80 77 75 73 71 69 66 64 62 59 57 57 58 59 58 57 55 51 47 43 40 36 33 33 32 31 30 31 30 30 32 33 33 32 32 32 33 35 36 36 37 37 37 35 34 33 32 32 32 32 33 34 33 32 31 30 30 29 27 26 25 26 26
94 95 95 97 99 98 97 94 91 88 84 80 76 70 66 63 60 58 57 56 56 56 57 56 53 49 46 43 39 35 33 31 28 27 27 26 26 26 26 25 26 28 28 28 29 29 30 31 31 32 33 34 35 34 33 33 33 33 32 32 31 31 32 32 31 28 27 27 26 25 23 22 23 23
99 99 100 101 100 97 93 90 86 81 76 72 68 64 61 58 56 55 55 55 54 52 48 44 40 36 32 31 28 27 26 25 24 24 24 24 24 24 24 24 25 26 27 27 28 29 29 30 30 31 32 32 32 31 31 31 31 31 30 30 29 29 29 30 29 27 25 25 24 22 22 21 21 21
105 103 101 99 95 89 85 79 74 69 65 62 61 59 59 58 56 54 51 47 43 40 35 31 29 26 24 23 22 22 22 21 21 21 22 22 22 22 23 24 25 26 26 27 28 29 29 29 29 29 29 29 28 28 28 26 26 28 28 28 28 28 28 29 28 27 25 24 23 22 21 20 19 19
104 100 97 94 87 79 73 68 63 61 59 58 57 56 54 52 49 45 40 34 31 29 27 24 22 21 20 20 20 20 20 19 19 19 19 20 20 21 22 23 23 23 24 24 26 27 26 25 26 27 27 26 25 25 25 24 24 25 27 27 27 28 28 28 28 27 25 24 23 22 21 19 19 19
102 96 91 85 76 68 62 60 58 58 57 55 52 48 44 40 36 32 29 26 24 22 21 20 19 18 18 19 19 19 19 18 18 18 17 17 18 19 20 20 20 20 21 22 23 23 23 24 25 25 24 24 23 23 24 24 24 25 26 27 28 28 28 28 28 27 26 25 24 22 20 19 19 19
90 83 77 71 64 60 58 58 56 55 52 46 41 36 32 29 27 26 24 22 20 19 18 17 17 18 18 19 18 18 17 17 16 16 16 17 17 18 17 17 18 19 20 21 21 21 22 23 23 22 22 22 22 22 22 23 24 26 27 27 27 28 28 28 28 27 26 25 24 22 21 20 19 20
72 68 64 62 60 59 58 55 50 45 40 35 31 28 27 25 24 22 21 19 18 17 17 17 17 17 17 17 16 15 15 16 16 16 17 17 16 16 16 16 17 18 18 19 19 19 20 20 20 20 21 21 21 20 21 22 24 25 25 26 27 29 29 29 28 27 27 25 24 23 23 22 22 22
66 64 62 61 59 55 50 44 38 34 31 29 28 26 24 23 21 20 19 18 18 18 17 17 17 17 16 15 14 14 14 15 15 15 15 15 14 14 15 16 16 16 16 17 17 17 18 18 18 19 20 20 19 20 21 22 23 23 25 27 29 30 30 29 28 27 26 25 24 24 24 25 27 28
65 63 59 55 49 43 38 34 32 30 29 27 26 24 22 20 19 18 18 18 18 18 18 17 17 16 15 14 13 13 13 13 14 14 14 14 14 14 15 15 15 15 15 16 17 18 19 19 19 19 20 20 20 21 22 22 23 24 27 29 30 31 30 28 27 26 24 24 25 26 26 29 31 30
57 52 47 41 36 33 32 31 29 27 26 24 22 21 20 19 19 18 18 18 18 17 16 16 16 15 13 12 12 12 12 12 13 14 14 14 15 16 16 16 16 16 17 18 19 21 22 21 20 20 21 21 22 23 23 24 25 27 29 30 31 30 29 27 26 24 23 24 25 26 29 33 34 30
43 39 35 33 32 31 29 27 25 23 22 21 21 20 19 19 19 18 18 17 16 15 14 14 14 13 12 11 11 11 11 13 13 14 14 15 16 16 17 17 17 18 19 20 21 23 23 23 22 22 22 23 25 26 26 26 27 29 30 31 31 30 28 27 25 24 23 23 24 26 30 33 31 29
35 34 32 30 28 26 24 23 22 22 21 21 20 20 19 18 18 17 16 14 14 13 13 13 13 12 11 10 10 10 11 11 12 12 13 13 14 14 15 16 17 19 20 21 23 24 25 25 25 25 24 25 26 27 27 28 29 30 31 32 32 30 28 26 24 23 21 20 21 24 27 28 27 27
Wind_Speed
29 28 29 30 32 34 34 32 33 33 32 32 32 32 33 34 33 33 33 34 35 35 34 33 32 32 32 32 32 32 33 34 35 37 38 38 37 37 37 37 38 39 40 41 43 44 46 47 49 51 52 54 56 58 59 60 60 60 60 59 59 58 57 56 55 54 54 53 53 54 54 55 56 56
30 29 30 31 33 35 34 33 33 34 34 33 32 31 32 34 35 35 35 35 35 35 34 34 33 33 32 31 31 31 31 32 33 34 35 36 36 36 35 36 36 37 38 39 41 43 45 48 50 51 53 55 56 58 58 59 59 58 57 56 55 54 52 51 51 51 51 52 52 53 54 55 56 57
31 31 31 32 34 35 35 34 35 35 34 32 32 33 34 35 36 36 36 35 34 34 35 35 34 33 33 32 31 30 29 29 30 31 32 32 33 34 35 35 36 37 38 39 40 42 44 47 49 51 52 54 55 56 56 56 55 55 54 53 52 51 49 49 48 49 49 50 51 52 53 54 55 56
32 32 33 34 35 36 36 36 36 35 33 32 33 35 36 36 35 36 36 35 35 35 36 36 35 34 34 34 33 32 32 32 33 35 36 37 37 38 39 39 39 39 41 42 43 44 44 45 47 49 51 52 53 54 54 54 53 52 52 52 51 50 49 48 48 48 48 49 50 51 52 53 54 55
33 34 35 35 36 37 37 37 36 34 31 30 31 34 35 35 34 34 34 34 35 35 36 37 37 36 35 35 34 34 35 36 37 39 40 41 43 44 44 44 44 44 44 45 46 46 47 46 46 47 48 50 51 52 52 52 51 50 51 51 50 50 49 49 49 49 49 50 50 51 51 52 53 54
34 35 36 36 36 36 37 37 36 34 31 29 30 32 32 32 32 32 33 33 33 33 33 34 35 35 34 34 34 36 38 40 41 43 44 46 47 47 48 48 48 48 48 48 49 49 48 47 46 46 47 48 49 50 50 50 49 49 50 50 50 50 50 51 51 51 51 52 52 52 52 52 53 53
35 36 37 36 36 36 36 36 35 33 31 31 31 30 30 30 31 31 32 34 34 32 30 30 30 32 33 35 37 40 42 44 46 48 50 51 52 52 52 51 51 51 51 51 52 51 49 47 46 46 47 47 48 48 48 49 49 49 49 50 50 51 51 52 53 54 54 54 54 54 54 54 54 54
35 37 37 36 36 36 36 36 35 34 33 33 32 32 32 32 32 32 33 35 36 34 32 31 32 34 36 39 41 44 46 48 50 52 55 56 57 56 56 55 54 53 53 54 54 52 50 47 47 47 47 47 47 47 48 48 48 48 49 49 50 51 52 52 54 55 55 56 56 56 56 56 56 56
36 36 36 36 36 36 37 37 37 36 36 34 35 36 37 36 36 36 35 36 37 37 36 36 36 38 40 42 45 47 49 51 54 56 58 60 60 61 61 60 57 56 56 56 56 54 51 48 47 47 47 46 46 46 47 47 48 48 48 49 49 50 51 53 54 55 56 57 57 58 58 58 58 58
36 36 36 35 35 37 38 39 40 40 39 39 40 41 40 39 39 39 38 39 39 39 39 39 40 41 43 46 48 51 53 55 58 60 62 63 64 64 64 64 61 59 59 59 57 55 52 49 47 46 46 46 46 46 46 47 47 47 48 48 49 50 51 52 54 55 56 57 58 59 59 60 60 61
36 35 35 34 33 35 39 41 42 43 43 44 45 44 42 41 40 41 41 41 41 42 43 43 43 44 47 49 51 53 56 59 62 63 65 66 66 66 67 66 64 62 60 59 58 56 52 49 46 45 44 44 44 45 47 47 46 47 48 48 49 50 51 52 53 54 56 57 58 59 60 61 62 63
36 35 35 33 32 35 38 39 41 43 46 47 47 45 44 42 42 42 42 43 44 45 45 46 47 49 51 52 54 56 60 63 65 67 68 68 68 69 69 67 65 63 61 60 59 56 53 49 46 44 43 43 43 44 46 47 45 46 47 48 48 49 50 51 52 53 54 55 56 57 59 60 61 62
36 36 36 36 37 40 42 42 44 46 48 49 48 46 45 44 43 44 44 45 45 46 48 49 50 52 55 57 59 62 65 67 68 69 70 71 70 70 71 69 66 63 61 60 59 57 53 49 46 44 44 44 43 44 46 46 45 45 47 47 48 49 50 51 51 52 53 54 56 56 57 58 58 59
38 39 40 41 43 45 47 48 49 50 49 48 48 47 45 45 45 46 46 47 47 48 50 52 54 57 60 63 66 68 70 70 70 71 72 72 73 73 72 70 66 64 63 61 59 56 53 50 47 45 44 46 46 45 46 47 46 45 46 48 49 49 50 51 51 52 53 54 55 57 58 58 58 59
41 41 43 44 46 48 50 52 52 51 49 49 48 48 47 47 47 48 49 49 51 53 55 58 62 65 68 70 71 72 72 72 72 73 73 74 74 74 72 69 67 65 64 63 59 55 53 52 51 47 45 46 49 49 49 48 47 47 47 48 49 50 51 51 52 53 54 54 55 56 57 58 59 59
45 45 46 48 49 51 52 53 52 51 50 49 49 49 49 49 50 51 53 56 59 63 66 68 70 72 73 73 73 74 74 74 75 75 75 75 74 73 71 69 68 66 64 63 61 56 52 52 53 51 47 45 48 52 53 51 50 50 50 50 50 51 52 52 53 54 55 55 56 57 58 59 59 59
49 49 50 50 51 52 53 52 52 51 51 51 52 52 52 53 54 58 62 66 69 71 72 73 74 75 76 76 76 77 77 78 78 77 77 75 74 72 71 70 69 68 65 62 61 59 55 52 54 54 52 48 47 51 55 54 53 53 53 53 53 53 54 55 55 56 57 57 59 60 60 61 61 61
49 50 50 51 52 53 54 54 53 53 53 54 56 57 58 60 63 68 71 73 74 74 75 76 76 77 78 79 80 81 81 81 79 78 77 75 74 73 71 70 70 69 66 63 61 60 58 55 55 56 56 53 50 52 56 57 56 56 57 57 56 57 58 58 58 59 59 60 61 62 63 64 64 65
52 52 53 53 54 55 55 55 55 55 57 60 62 64 66 69 72 75 76 76 77 77 78 79 79 80 81 82 83 83 81 79 78 78 77 76 75 74 73 71 71 69 67 65 63 61 60 58 57 58 59 57 55 55 57 60 60 60 61 61 60 61 63 63 63 63 63 64 65 65 66 67 68 69
55 57 57 58 58 58 57 58 59 61 64 67 69 71 74 76 78 79 79 79 80 81 81 82 82 83 83 82 82 80 78 77 78 78 78 77 77 76 74 73 72 69 67 67 67 65 64 60 58 60 62 61 60 59 60 62 63 64 65 64 64 65 66 67 67 67 68 68 69 69 70 71 71 72
58 59 60 60 60 61 63 65 68 70 73 75 77 79 80 81 81 82 82 82 83 83 83 82 82 81 80 79 78 77 77 80 81 79 77 78 78 76 74 73 73 72 69 68 69 69 69 66 62 63 65 64 64 64 64 64 66 68 69 69 68 69 70 71 71 71 71 72 72 73 74 74 75 76
62 64 65 65 66 69 72 75 77 79 80 81 82 83 83 84 84 85 85 85 84 83 83 82 81 79 77 76 76 78 81 83 83 81 80 80 79 77 75 75 76 76 74 72 71 72 74 72 69 69 71 69 68 69 69 68 69 71 72 73 73 74 75 75 75 75 75 76 76 77 77 77 78 78
69 70 72 73 74 76 79 81 82 83 84 85 86 86 87 87 88 89 89 88 87 85 84 84 82 78 76 77 80 83 85 85 84 84 84 83 82 80 78 78 78 79 79 77 74 75 77 77 74 74 76 76 74 73 73 73 73 74 75 75 76 77 78 78 79 79 79 79 80 81 81 81 81 81
74 75 76 77 79 81 83 84 86 86 87 88 89 91 91 91 92 91 91 91 90 88 87 86 85 82 82 84 86 86 86 86 87 87 87 86 86 84 82 82 81 81 83 82 79 79 81 81 78 78 79 81 80 78 78 78 78 78 78 78 79 80 81 81 82 82 83 83 84 85 86 86 85 85
77 78 79 81 84 87 88 89 89 90 91 92 92 93 94 94 94 93 93 92 91 90 89 87 87 87 87 88 87 86 88 89 89 90 90 89 89 88 87 86 85 85 87 86 84 84 85 84 83 82 82 84 84 82 82 82 82 82 81 81 82 83 83 83 84 85 86 86 87 88 89 89 88 87
83 84 85 85 88 91 92 92 92 93 93 94 94 95 96 96 96 95 94 93 92 91 91 90 89 88 88 88 87 88 91 91 90 91 93 92 92 92 91 90 89 89 90 89 88 88 88 87 86 86 85 86 87 86 86 85 85 85 85 85 87 87 86 85 86 88 89 89 89 90 91 91 91 90
87 88 88 88 90 92 93 94 95 96 96 97 97 98 98 98 98 96 95 93 93 92 92 92 92 92 92 92 91 92 94 94 92 93 95 95 95 95 94 93 93 93 92 91 90 90 90 89 89 89 89 89 89 89 89 89 89 89 88 88 90 91 90 88 88 90 91 90 90 90 90 91 91 91
89 90 91 92 93 94 95 96 97 99 99 100 99 99 99 98 97 95 94 94 94 94 95 95 96 96 96 98 98 97 97 97 96 95 96 97 98 98 97 96 96 96 94 93 92 92 91 91 91 91 91 92 92 92 92 92 92 92 92 92 92 92 92 90 89 91 92 91 90 89 88 88 89 89
92 93 95 96 97 98 99 99 100 101 101 101 100 99 98 97 95 94 94 95 97 98 98 99 100 100 101 103 103 101 100 100 100 98 97 98 98 98 98 97 97 97 96 95 94 93 92 93 93 93 94 94 94 95 95 95 95 95 95 94 93 92 91 89 89 90 90 90 89 87 86 85 86 86
97 98 100 101 102 102 103 103 102 102 101 100 99 99 98 97 96 97 98 100 102 102 103 103 103 104 104 106 106 104 103 103 103 100 98 97 97 97 97 97 97 97 97 96 95 94 94 94 94 95 96 96 96 95 96 96 96 96 95 93 91 89 88 87 86 87 87 86 85 84 82 81 82 82
102 103 104 105 105 105 104 103 102 100 99 98 98 98 99 99 100 102 104 105 107 107 107 107 107 107 107 107 107 106 105 104 103 100 98 96 96 96 97 96 96 97 97 96 95 94 94 94 94 94 95 95 95 94 94 94 94 93 90 87 85 84 84 83 82 82 82 81 80 79 77 76 77 77
104 105 104 104 104 103 103 102 101 100 100 100 101 102 103 104 105 107 108 109 110 111 110 110 109 108 108 108 108 107 105 104 102 100 97 96 96 95 95 95 94 94 95 95 93 92 91 91 91 92 92 92 92 91 91 90 88 86 84 81 78 78 78 78 77 76 76 76 74 73 72 71 71 71
104 103 102 102 102 102 102 103 103 104 105 106 107 107 108 108 109 110 110 111 111 111 111 110 109 108 107 107 107 105 103 102 101 99 97 96 94 93 92 91 90 90 91 90 89 88 86 86 86 86 87 87 87 86 86 84 82 80 78 76 74 73 74 74 73 72 71 71 70 69 67 66 65 66
102 102 102 102 103 104 105 106 107 108 109 110 111 111 111 111 111 111 111 111 110 110 110 109 108 107 105 105 104 102 101 100 99 96 94 93 91 90 88 86 85 85 85 84 84 83 82 82 81 81 81 81 81 81 80 78 76 75 74 73 72 70 70 70 70 69 67 66 66 65 64 62 61 62
102 104 105 106 107 108 109 110 111 112 112 113 113 113 113 112 111 110 110 109 109 109 108 107 106 104 102 101 99 98 96 95 93 91 89 88 86 85 84 82 81 81 80 79 79 79 78 77 77 76 76 76 76 75 74 73 72 71 70 70 69 68 67 67 67 66 64 63 63 62 60 59 58 58
106 108 109 111 112 112 113 113 114 114 113 113 112 112 111 111 111 110 109 107 106 106 105 103 101 99 97 95 93 91 90 88 86 84 83 82 80 79 78 77 77 76 75 75 75 75 74 74 73 73 73 73 72 71 70 69 67 66 66 66 66 66 65 65 64 63 62 61 60 59 58 57 56 55
111 112 114 115 115 115 115 115 115 114 113 112 111 111 110 110 109 108 106 104 101 100 99 98 95 92 90 89 88 86 84 83 81 78 77 76 74 73 73 73 72 72 71 70 71 71 71 70 70 70 70 70 68 67 67 65 63 62 63 63 63 63 63 62 62 61 59 58 57 56 55 54 53 52
115 116 117 117 117 117 116 115 114 113 113 112 111 110 108 106 105 104 102 100 97 94 93 91 88 86 85 84 83 81 79 77 75 73 72 70 69 68 68 68 67 67 67 67 67 67 67 66 67 67 67 66 65 64 63 62 61 60 60 60 61 61 61 60 59 58 56 55 54 53 52 51 49 48
117 117 118 118 117 116 115 114 114 114 113 111 109 106 104 102 101 99 98 95 92 89 86 84 82 80 78 77 76 75 73 71 70 69 67 66 66 65 65 64 63 63 63 63 63 63 63 63 64 63 63 62 61 61 59 58 57 57 58 58 59 59 59 58 56 55 54 53 52 50 49 48 46 45
118 118 117 117 117 116 116 115 114 112 110 108 105 103 101 99 97 95 92 90 87 84 81 79 76 74 72 71 70 69 67 66 65 65 64 64 63 62 61 60 60 60 59 60 59 59 59 60 59 59 59 59 58 57 56 55 55 55 55 56 57 57 56 55 54 53 52 51 49 48 47 46 44 43
118 118 118 118 117 116 115 112 110 108 106 105 103 101 98 95 92 89 86 84 81 79 76 74 72 70 69 68 66 64 62 62 61 61 61 61 60 58 56 56 57 56 56 55 55 55 56 56 55 55 55 56 55 53 52 52 52 53 53 53 54 54 53 52 51 51 50 48 46 45 44 43 42 42
119 119 118 117 115 113 111 109 107 106 104 101 99 95 92 89 86 83 80 78 76 74 72 70 69 68 66 64 62 60 59 58 58 58 57 57 55 54 53 53 54 53 52 51 51 51 52 53 52 51 52 51 50 49 49 50 50 50 50 51 51 51 51 50 50 48 47 45 44 43 42 41 41 41
118 116 115 113 111 109 108 106 103 100 97 94 91 87 85 82 79 77 75 74 72 70 68 66 66 65 64 61 59 57 55 54 54 54 53 52 52 51 50 50 50 49 48 48 47 48 49 50 49 49 48 47 46 46 47 47 48 48 48 49 49 49 49 49 48 47 45 43 42 41 40 40 41 41
114 112 111 109 107 105 102 99 95 92 89 86 83 80 78 76 74 73 72 70 68 66 64 63 62 62 61 58 56 54 51 50 50 50 49 49 49 48 47 47 46 46 46 45 45 45 46 46 46 46 45 44 44 45 45 45 46 46 46 47 47 47 48 48 47 45 44 42 40 39 39 39 40 40
111 109 106 103 100 96 93 90 87 84 82 79 77 75 73 71 70 69 68 66 65 63 61 59 59 59 58 55 53 51 49 48 48 47 47 47 46 45 45 44 44 44 44 44 43 43 43 44 44 44 44 43 43 44 44 44 44 45 45 45 46 46 47 47 46 44 42 41 39 38 38 39 39 38
Wind_Direction
254 253 254 256 258 260 261 261 261 260 259 262 266 264 267 273 278 282 283 284 283 280 278 276 274 275 277 278 279 279 280 280 280 280 280 281 283 285 287 288 290 290 290 289 288 287 286 285 285 285 284 284 284 284 284 284 285 285 284 284 283 282 281 280 279 277 275 273 271 269 267 265 264 264
255 255 255 256 258 260 261 260 259 258 259 264 266 264 267 274 278 280 282 284 282 279 277 274 273 275 277 278 279 280 281 281 281 282 282 284 285 287 289 290 292 294 294 294 294 292 291 289 287 286 286 285 285 286 286 286 286 286 286 285 284 283 282 281 279 277 275 272 271 270 269 267 266 265
257 257 256 256 257 259 258 256 255 257 260 263 264 265 270 274 276 280 283 284 282 279 277 274 272 273 275 277 280 283 286 287 288 289 291 292 294 295 296 296 297 298 297 297 296 295 293 291 289 287 286 286 286 286 287 287 287 287 287 286 284 283 283 283 281 279 277 274 273 271 270 270 269 268
260 260 259 258 257 257 257 256 257 259 260 261 264 268 272 275 277 280 282 282 281 280 278 275 272 271 272 274 279 287 294 298 300 301 301 301 302 303 304 304 304 304 304 304 302 299 296 293 291 289 288 287 287 287 288 288 289 289 288 287 285 285 284 284 283 281 279 277 275 274 273 272 271 271
263 263 262 261 259 259 259 259 260 261 261 262 266 270 274 277 279 279 279 281 282 282 279 275 271 269 270 275 284 294 301 305 307 309 309 308 308 308 308 307 307 307 308 309 308 303 299 295 293 292 290 289 288 288 288 289 289 290 289 287 285 285 284 283 282 280 279 277 276 275 274 274 273 272
268 266 265 263 261 260 260 260 262 263 264 267 272 274 276 277 278 278 278 280 285 286 282 276 271 270 274 282 293 300 304 308 310 312 313 314 313 312 310 309 308 309 310 311 311 307 302 297 295 294 293 292 291 290 289 289 289 289 288 286 285 284 283 282 281 279 278 278 277 276 275 274 274 273
273 270 268 264 262 260 260 262 263 262 265 273 278 278 277 276 277 277 278 281 286 288 286 282 278 279 284 292 298 303 306 309 311 313 313 314 315 315 313 310 308 309 310 311 311 310 305 300 298 297 295 294 292 291 290 289 288 287 286 285 284 283 283 282 281 280 280 279 278 277 276 275 274 273
276 273 271 268 264 262 263 264 261 261 268 276 280 281 280 279 279 279 279 281 285 288 289 288 287 286 289 294 300 304 307 309 310 311 312 312 313 314 313 311 309 309 309 310 311 310 307 302 299 297 295 293 292 291 290 288 287 286 285 284 283 282 282 281 281 280 280 280 279 278 277 277 276 275
278 274 272 269 266 264 263 260 258 262 270 277 283 285 283 282 282 282 282 282 285 288 290 290 288 287 289 294 299 303 306 308 308 309 310 310 311 312 311 311 310 309 309 310 310 310 307 303 299 297 295 293 291 290 289 288 286 285 284 283 283 282 281 281 280 280 279 279 279 278 278 277 276 275
278 274 270 269 267 264 260 257 259 266 272 278 286 288 286 285 285 285 286 287 287 289 292 292 290 290 291 295 299 303 305 307 307 307 307 308 308 309 309 310 310 309 309 309 309 308 306 303 299 296 294 293 292 291 290 288 287 286 285 284 283 283 282 281 280 280 279 279 279 279 278 278 277 276
276 272 268 266 265 264 262 261 264 270 275 281 288 290 288 289 289 289 291 291 291 292 294 294 294 293 295 297 300 302 303 305 305 304 304 305 306 306 307 308 308 308 307 307 307 306 305 302 299 296 295 294 292 291 290 289 288 287 287 286 285 284 284 283 282 282 281 280 279 279 278 278 277 277
274 269 264 262 262 265 266 267 271 276 280 285 289 290 291 293 294 294 294 292 291 292 293 293 294 295 297 299 301 301 301 301 301 301 301 302 303 304 305 306 306 305 305 305 305 305 304 302 300 297 296 294 293 291 290 288 288 288 287 287 286 286 286 285 285 285 284 283 281 280 279 279 278 278
273 268 264 263 264 267 270 273 278 282 286 288 290 292 294 295 294 294 293 291 291 292 292 293 293 295 297 299 299 299 298 299 299 299 300 301 302 303 304 305 305 304 304 304 304 303 303 302 300 299 297 295 293 292 290 289 289 289 289 288 287 287 286 286 286 286 285 285 284 283 282 281 280 280
274 270 268 268 270 273 277 281 285 287 289 290 292 293 293 292 292 292 292 292 292 293 293 293 293 294 296 297 297 296 296 297 298 298 299 300 301 303 303 303 303 303 303 304 303 302 302 301 299 299 299 297 295 293 291 291 291 290 289 289 288 287 287 286 286 286 285 285 285 285 284 283 282 281
277 274 273 274 276 279 283 286 289 289 289 290 291 292 291 290 291 292 292 293 293 293 294 293 293 293 294 295 295 295 296 297 298 298 299 300 300 301 302 301 301 301 302 302 302 301 302 300 299 299 299 298 295 294 293 293 293 292 290 289 288 288 287 287 287 286 286 286 286 286 285 285 284 283
281 279 278 279 281 283 285 287 288 288 287 288 289 290 290 289 289 290 291 292 292 293 293 292 293 294 294 295 295 295 296 297 297 298 299 299 299 300 300 299 299 300 301 300 300 301 301 298 297 298 299 297 294 292 293 294 294 293 291 290 289 289 288 287 287 287 287 287 287 286 286 285 285 284
283 282 282 282 282 282 283 285 285 285 285 286 288 289 289 288 287 289 290 291 292 292 292 293 293 294 294 295 295 295 296 296 297 297 298 298 298 298 298 298 299 299 299 299 299 300 300 298 296 296 297 296 294 291 290 293 294 293 291 291 290 290 288 287 287 287 287 287 287 287 287 287 287 287
282 281 280 280 280 281 283 283 282 282 283 285 287 288 288 287 287 288 290 290 291 291 292 292 293 293 294 294 294 295 295 295 295 296 297 297 297 297 298 298 298 298 298 298 298 297 298 298 295 294 295 296 296 292 290 292 293 293 291 291 291 290 289 289 288 288 288 288 288 288 288 288 288 288
283 283 282 281 280 281 282 281 279 279 281 283 284 285 285 286 287 288 288 289 290 291 292 292 293 293 293 293 293 294 294 294 295 296 297 297 297 297 298 297 297 297 297 297 297 296 296 296 295 293 294 296 296 294 292 292 293 292 291 292 292 290 290 290 290 290 289 289 289 289 289 289 289 289
280 281 281 280 280 279 278 277 277 278 280 281 282 282 283 285 286 287 288 289 290 292 292 293 293 293 293 293 293 293 293 294 295 296 296 296 296 297 298 297 296 296 297 297 297 296 295 295 294 292 293 295 296 294 293 292 291 291 291 292 292 291 290 290 290 290 290 290 290 290 290 290 290 289
277 277 277 277 277 277 275 275 276 278 279 280 282 283 284 285 287 287 289 291 292 292 293 293 293 293 293 294 293 292 293 294 295 295 295 295 296 297 297 296 296 297 298 297 296 295 295 296 295 293 293 294 294 293 293 292 290 290 291 292 292 291 291 291 291 291 290 290 291 290 290 290 290 290
274 275 275 274 274 275 276 277 278 279 281 282 284 285 285 287 288 289 290 291 292 292 292 293 293 294 293 293 292 292 293 295 295 295 295 295 296 297 296 295 296 298 298 297 295 294 295 297 297 295 294 295 294 293 293 293 291 289 290 291 292 291 291 291 291 291 290 290 290 290 289 289 289 289
275 276 277 277 277 278 278 279 280 282 283 284 285 285 287 288 289 290 291 291 291 291 291 291 292 292 291 290 291 292 293 294 294 295 296 296 297 297 296 296 297 297 297 297 296 293 293 296 297 296 295 295 294 293 293 292 291 290 290 290 290 289 290 290 290 290 290 290 290 290 289 289 289 289
277 278 279 280 280 280 280 281 282 283 284 285 286 287 288 289 290 291 291 291 291 291 291 291 291 291 290 291 291 292 293 294 295 296 297 297 297 297 297 297 297 296 295 296 295 293 293 295 296 294 293 293 293 293 293 292 292 291 290 290 289 288 289 289 289 290 290 290 290 290 290 290 290 290
277 278 279 280 280 281 281 282 283 284 285 286 287 288 289 289 290 290 291 291 291 291 291 291 292 292 293 294 294 294 294 295 295 295 296 296 296 296 296 296 296 294 294 295 294 293 293 294 294 292 291 291 291 292 291 291 291 290 290 290 289 288 288 288 289 289 289 289 289 289 289 290 290 290
279 280 281 281 281 282 283 284 285 286 287 287 288 288 289 289 290 290 290 290 290 290 290 291 291 292 293 293 294 294 294 294 294 294 294 294 294 294 294 294 294 293 293 293 293 292 292 292 292 291 291 290 290 290 290 290 290 290 290 289 288 288 288 288 288 288 288 288 288 288 288 289 289 289
280 281 281 282 282 283 285 286 287 287 287 288 288 288 289 290 290 290 291 290 290 291 291 291 292 292 292 292 292 292 292 292 293 293 293 293 293 293 293 293 293 292 291 292 291 291 291 291 290 290 290 290 289 289 289 289 289 289 289 289 288 288 288 288 288 288 287 287 287 287 287 287 287 287
281 281 282 283 283 284 285 286 286 287 288 289 289 289 290 290 290 291 291 292 292 292 292 292 292 292 292 292 291 291 291 291 291 291 290 291 291 291 292 292 291 290 290 290 290 290 290 290 290 289 289 289 288 288 288 288 288 288 288 288 287 287 288 288 288 287 287 287 286 286 286 285 285 286
282 283 283 284 285 285 286 287 288 289 289 290 290 290 289 289 289 290 291 292 292 292 292 292 292 292 292 291 291 291 291 290 289 289 289 289 289 289 289 289 289 289 289 289 289 289 289 289 289 288 288 287 287 287 287 287 287 287 286 286 286 287 287 287 287 286 286 285 285 285 284 284 284 284
283 284 285 286 286 287 288 289 290 290 290 290 290 290 289 289 289 289 290 291 291 291 291 291 291 291 291 291 291 291 290 289 288 288 288 288 288 288 287 288 288 288 288 288 288 288 288 288 287 287 286 286 286 286 286 285 285 285 285 285 285 286 286 286 285 285 284 284 283 283 283 283 284 284
285 285 286 287 288 289 290 290 291 291 291 291 290 290 290 289 289 289 290 290 290 291 291 291 291 291 291 291 291 291 290 289 288 288 287 287 287 287 286 287 287 287 287 287 287 287 286 286 285 285 285 284 284 284 284 283 283 283 283 284 285 285 285 284 283 283 282 282 282 282 282 283 283 283
285 286 287 288 289 289 290 290 290 291 290 290 290 290 289 289 289 289 289 289 290 290 291 291 291 291 291 291 291 290 289 289 288 287 287 287 286 286 286 286 286 286 286 286 285 285 285 284 284 284 283 283 283 282 282 282 282 283 283 284 284 284 283 282 282 281 281 281 282 282 282 282 282 283
285 286 287 287 288 288 289 289 289 290 290 290 289 289 289 288 288 288 289 289 290 290 291 291 291 291 291 291 290 289 289 288 288 288 287 287 286 286 285 285 285 285 284 284 284 284 283 282 282 282 281 281 281 281 281 281 282 283 283 283 283 282 282 282 281 281 281 281 281 282 282 283 284 285
285 286 286 287 287 288 288 288 289 289 289 289 289 289 289 289 289 289 290 290 290 291 291 291 291 290 290 289 288 288 288 287 287 287 287 287 286 285 284 284 284 283 283 283 282 282 281 281 280 280 280 280 280 280 280 281 282 282 282 282 282 282 281 281 281 281 281 281 282 282 283 284 285 286
285 285 286 286 287 287 287 288 288 288 288 289 289 289 290 290 290 291 291 291 291 291 291 291 290 289 289 288 288 287 287 287 286 286 286 285 285 284 284 283 283 282 282 281 281 281 281 280 280 280 279 279 279 279 280 280 280 281 281 281 281 281 280 280 280 280 281 282 282 283 285 285 286 285
284 285 285 286 286 287 287 287 288 288 288 289 289 290 291 291 292 292 292 291 291 291 290 290 289 289 288 288 288 287 287 286 285 285 285 284 284 283 283 283 282 281 281 281 281 280 280 280 280 279 279 279 279 279 279 279 280 280 280 280 280 280 279 279 280 280 281 282 283 285 285 286 286 285
284 284 285 285 286 286 287 287 288 289 289 290 291 292 292 292 292 292 292 291 291 290 290 289 289 289 289 288 288 287 287 286 285 284 284 283 283 283 282 282 281 281 280 280 280 279 279 279 279 279 278 278 278 278 279 279 279 279 279 279 279 278 278 279 279 280 281 283 284 284 285 285 285 286
283 284 284 285 286 287 287 289 290 291 292 292 293 293 293 293 293 292 292 292 291 290 290 290 289 289 289 288 288 287 286 285 285 285 284 284 283 282 281 281 280 280 280 279 278 278 278 278 277 277 277 277 278 278 278 278 278 278 278 277 277 277 277 278 278 280 281 282 283 283 284 284 285 286
283 284 284 285 287 288 289 291 292 293 293 293 293 293 294 294 294 293 293 292 292 291 290 290 289 289 288 287 286 286 286 285 285 285 285 284 283 282 281 281 280 280 279 278 277 276 276 276 275 276 276 277 276 276 276 277 277 276 275 275 275 275 276 277 278 280 280 281 281 282 284 284 285 285
284 285 286 287 289 290 291 292 293 293 293 294 294 295 295 294 294 293 293 292 292 291 291 290 289 288 287 286 286 286 286 286 286 285 284 283 282 281 281 281 280 278 277 276 276 275 275 274 275 275 275 275 274 275 275 275 274 273 272 272 273 274 275 276 278 279 279 280 281 282 283 284 285 285
285 286 288 289 290 291 292 293 293 294 294 295 295 295 294 294 293 292 292 291 291 291 290 290 289 289 288 287 287 287 287 286 285 284 283 282 281 281 281 279 277 276 275 275 275 275 275 274 274 274 273 273 274 274 273 272 271 271 271 271 272 273 275 276 277 277 278 280 281 282 283 284 285 284
286 288 289 290 291 292 292 293 294 294 294 294 293 293 293 292 292 291 291 290 290 290 289 289 289 288 287 287 287 287 287 286 284 282 281 281 280 280 278 277 276 275 275 275 274 274 274 274 273 273 272 273 273 273 272 271 270 270 271 271 272 273 275 276 276 277 278 280 281 282 283 284 284 282
287 288 289 291 291 292 293 293 293 293 292 292 292 291 291 291 291 290 290 289 289 289 289 289 288 287 287 287 287 287 286 284 282 281 280 280 279 278 276 276 275 275 275 274 273 272 272 272 272 272 272 273 272 271 270 270 270 270 270 271 272 273 275 275 277 278 279 280 281 282 284 283 282 281
288 289 290 291 291 291 291 291 291 291 291 291 290 290 290 290 290 289 289 288 288 288 288 288 287 287 287 288 288 287 285 283 282 280 279 278 278 277 276 275 275 274 273 272 271 271 271 271 271 271 271 271 271 270 270 270 270 271 271 272 273 274 275 276 277 279 281 282 283 283 283 281 280 280
289 289 289 290 290 290 290 290 290 290 290 290 290 289 289 289 289 288 288 288 288 288 288 288 287 287 287 288 287 287 285 283 281 280 279 278 277 276 275 275 274 272 271 270 270 270 270 270 271 271 270 270 270 270 270 271 271 271 272 272 273 274 275 276 278 280 281 282 282 282 280 279 279 278